METEOROLOGIA EM SINES

HOJE

9 °

NE 8
100 %
1039 hPa
atual
03:00
06:00
09:00
12°
12:00
14°
15:00
13°
domingo
14°
segunda-feira
13°
terça-feira
14°
10°

Meteorologia

Data Velocidade média (km/h) Velocidade rajada (km/h) Direcção Temperatura (ºC) Pressão (mBar) Humidade (%) Precipitação
2017-12-17 02:20 12 14 N 7 76 0
2017-12-17 02:10 14 16 NNE 7 77 0
2017-12-17 02:00 14 18 NNE 7 77 0
2017-12-17 01:50 14 19 N 7 77 0
2017-12-17 01:40 14 18 N 7 78 0
2017-12-17 01:30 14 16 N 7 79 0
2017-12-17 01:20 13 16 NNE 7 78 0
2017-12-17 01:10 14 16 NNE 7 78 0
2017-12-17 01:00 13 16 N 7 78 0
2017-12-17 00:50 14 18 NNE 7 77 0

Ondulação

Data Altura Período Direcção Temperatura (ºC)
2017-12-17 02:00 1,82 8 NW 15,9
2017-12-17 01:50 1,74 7,4 NW 15,9
2017-12-17 01:40 1,71 7,4 NW 15,9
2017-12-17 01:30 1,93 8,3 NW 15,9
2017-12-17 01:10 1,53 7,7 NW 15,9
2017-12-17 01:00 1,91 7,3 NW 15,9
2017-12-17 00:50 1,65 6,7 NW 15,9
2017-12-17 00:40 1,68 6,7 NW 15,9
2017-12-17 00:30 2,07 7,4 NW 15,9
2017-12-17 00:20 1,79 7,2 NW 15,9

Marés

Data Altura Previsão Dif
2017-12-17 02:00 3,27 3,15 0,12
2017-12-17 01:54 3,29 3,16 0,13
2017-12-17 01:48 3,29 3,16 0,13
2017-12-17 01:42 3,27 3,16 0,11
2017-12-17 01:36 3,3 3,16 0,14
2017-12-17 01:30 3,26 3,15 0,11
2017-12-17 01:24 3,29 3,15 0,14
2017-12-17 01:18 3,25 3,13 0,12
2017-12-17 01:12 3,24 3,12 0,12
2017-12-17 01:06 3,21 3,1 0,11